Location: Mohawk View
(42.7837°N, 73.7885°W)
Time: 11:50:39
(UTC+00:00)

SL-16 R/B - Pass Details

Date: 17 June 2021
Orbit: 985 x 1007 km, 99.5° (Epoch: 26 July)

Event Time Altitude Azimuth Distance (km) Brightness Sun altitude
Exits shadow 06:26:23 22° 154° (SSE) 2,030 3.8 -20.6°
Maximum altitude 06:30:35 75° 73° (ENE) 1,029 2.6 -20.3°
Drops below altitude 10° 06:36:47 10° 348° (NNW) 2,760 5.6 -19.9°
Sets 06:39:15 0° 347° (NNW) 3,710 6.4 -19.7°
